• In Moldova, Republic
  • List of Countries
  • For 7 days
  • Water Temperature
  • Satellite Maps
  • Weather Map
  • Weather Widgets
  • user-avatar
    Login

    Hourly Weather Gjirokaster

    Today, 28 June, Wednesday

    Time Temperature Precipitation Wind Pressure Humidity
    00:00 +15°C° 0 mm 2 mps 651 mmHg 78%
    01:00 +15°C° 0 mm 2 mps 651 mmHg 78%
    02:00 +14°C° 0 mm 2 mps 650 mmHg 78%
    03:00 +14°C° 0 mm 2 mps 650 mmHg 78%
    04:00 +13°C° 0 mm 3 mps 650 mmHg 79%
    05:00 +16°C° 0 mm 3 mps 651 mmHg 70%
    06:00 +19°C° 0 mm 3 mps 651 mmHg 61%
    07:00 +21°C° 0 mm 3 mps 652 mmHg 52%
    08:00 +24°C° 0 mm 3 mps 652 mmHg 47%
    09:00 +25°C° 0 mm 3 mps 653 mmHg 41%
    10:00 +27°C° 0 mm 3 mps 653 mmHg 36%
    11:00 +27°C° 0 mm 3 mps 653 mmHg 35%
    12:00 +28°C° 0 mm 3 mps 653 mmHg 34%
    13:00 +28°C° 0 mm 4 mps 653 mmHg 33%
    14:00 +28°C° 0 mm 3 mps 653 mmHg 35%
    15:00 +27°C° 0 mm 3 mps 653 mmHg 37%
    16:00 +27°C° 0 mm 3 mps 653 mmHg 39%
    17:00 +24°C° 0 mm 2 mps 652 mmHg 49%
    18:00 +21°C° 0 mm 2 mps 651 mmHg 59%
    19:00 +18°C° 0 mm 2 mps 651 mmHg 68%
    20:00 +18°C° 0 mm 2 mps 651 mmHg 68%
    21:00 +17°C° 0 mm 2 mps 651 mmHg 69%
    22:00 +17°C° 0 mm 2 mps 651 mmHg 69%
    23:00 +17°C° 0 mm 3 mps 651 mmHg 69%

    Tomorrow, 29 June, Thursday

    Time Temperature Precipitation Wind Pressure Humidity
    00:00 +16°C° 0 mm 3 mps 651 mmHg 68%
    01:00 +16°C° 0 mm 3 mps 651 mmHg 68%
    02:00 +16°C° 0 mm 3 mps 651 mmHg 65%
    03:00 +14°C° 0 mm 3 mps 650 mmHg 63%
    04:00 +14°C° 0 mm 3 mps 650 mmHg 60%
    05:00 +18°C° 0 mm 3 mps 651 mmHg 54%
    06:00 +20°C° 0 mm 3 mps 652 mmHg 48%
    07:00 +24°C° 0 mm 3 mps 653 mmHg 42%
    08:00 +26°C° 0 mm 4 mps 653 mmHg 38%
    09:00 +27°C° 0 mm 4 mps 654 mmHg 33%
    10:00 +29°C° 0 mm 4 mps 654 mmHg 29%
    11:00 +29°C° 0 mm 5 mps 654 mmHg 28%
    12:00 +30°C° 0 mm 5 mps 654 mmHg 28%
    13:00 +30°C° 0 mm 5 mps 654 mmHg 28%
    14:00 +30°C° 0 mm 4 mps 654 mmHg 29%
    15:00 +29°C° 0 mm 4 mps 653 mmHg 31%
    16:00 +28°C° 0 mm 4 mps 653 mmHg 33%
    17:00 +26°C° 0 mm 3 mps 653 mmHg 42%
    18:00 +22°C° 0 mm 3 mps 652 mmHg 52%
    19:00 +19°C° 0 mm 2 mps 652 mmHg 62%
    20:00 +18°C° 0 mm 3 mps 652 mmHg 63%
    21:00 +18°C° 0 mm 3 mps 652 mmHg 63%
    22:00 +17°C° 0 mm 3 mps 652 mmHg 64%
    23:00 +17°C° 0 mm 3 mps 652 mmHg 62%

    Day after tomorrow, 30 June, Friday

    Time Temperature Precipitation Wind Pressure Humidity
    00:00 +16°C° 0 mm 3 mps 652 mmHg 59%
    01:00 +16°C° 0 mm 3 mps 652 mmHg 57%
    02:00 +16°C° 0 mm 3 mps 652 mmHg 54%
    03:00 +16°C° 0 mm 3 mps 652 mmHg 52%
    04:00 +16°C° 0 mm 3 mps 652 mmHg 49%
    05:00 +18°C° 0 mm 2 mps 653 mmHg 45%
    06:00 +21°C° 0 mm 2 mps 654 mmHg 41%
    07:00 +25°C° 0 mm 2 mps 655 mmHg 37%
    08:00 +27°C° 0 mm 2 mps 655 mmHg 34%
    09:00 +28°C° 0 mm 2 mps 655 mmHg 30%
    10:00 +30°C° 0 mm 2 mps 656 mmHg 27%
    11:00 +31°C° 0 mm 3 mps 656 mmHg 26%
    12:00 +31°C° 0 mm 3 mps 656 mmHg 24%
    13:00 +33°C° 0 mm 3 mps 656 mmHg 23%
    14:00 +33°C° 0 mm 3 mps 655 mmHg 25%
    15:00 +31°C° 0 mm 3 mps 655 mmHg 26%
    16:00 +31°C° 0 mm 3 mps 655 mmHg 28%
    17:00 +28°C° 0 mm 2 mps 654 mmHg 38%
    18:00 +24°C° 0 mm 2 mps 653 mmHg 47%
    19:00 +20°C° 0 mm 2 mps 652 mmHg 57%
    20:00 +19°C° 0 mm 2 mps 652 mmHg 57%
    21:00 +19°C° 0 mm 2 mps 652 mmHg 57%
    22:00 +18°C° 0 mm 2 mps 652 mmHg 57%
    23:00 +18°C° 0 mm 2 mps 652 mmHg 54%

    1 July, Saturday

    Time Temperature Precipitation Wind Pressure Humidity
    00:00 +17°C° 0 mm 2 mps 652 mmHg 52%
    01:00 +17°C° 0 mm 2 mps 652 mmHg 50%
    02:00 +17°C° 0 mm 2 mps 651 mmHg 47%
    03:00 +17°C° 0 mm 2 mps 651 mmHg 45%
    04:00 +17°C° 0 mm 2 mps 651 mmHg 43%
    05:00 +20°C° 0 mm 2 mps 652 mmHg 39%
    06:00 +24°C° 0 mm 2 mps 653 mmHg 36%
    07:00 +26°C° 0 mm 1 mps 654 mmHg 32%
    08:00 +28°C° 0 mm 1 mps 654 mmHg 29%
    09:00 +29°C° 0 mm 2 mps 654 mmHg 26%
    10:00 +31°C° 0 mm 2 mps 654 mmHg 24%
    11:00 +31°C° 0 mm 2 mps 654 mmHg 23%
    12:00 +32°C° 0 mm 2 mps 654 mmHg 22%
    13:00 +33°C° 0 mm 3 mps 654 mmHg 22%
    14:00 +33°C° 0 mm 3 mps 653 mmHg 24%
    15:00 +31°C° 0 mm 3 mps 653 mmHg 26%
    16:00 +30°C° 0 mm 3 mps 653 mmHg 28%
    17:00 +27°C° 0 mm 2 mps 652 mmHg 39%
    18:00 +24°C° 0 mm 2 mps 651 mmHg 49%
    19:00 +21°C° 0 mm 1 mps 650 mmHg 59%
    20:00 +20°C° 0 mm 1 mps 650 mmHg 62%
    21:00 +19°C° 0 mm 1 mps 650 mmHg 65%
    22:00 +18°C° 0 mm 1 mps 650 mmHg 67%
    23:00 +16°C° 0 mm 1 mps 649 mmHg 68%

    2 July, Sunday

    Time Temperature Precipitation Wind Pressure Humidity
    00:00 +16°C° 0 mm 1 mps 649 mmHg 69%
    01:00 +15°C° 0 mm 1 mps 648 mmHg 70%
    02:00 +15°C° 0 mm 1 mps 648 mmHg 72%
    03:00 +15°C° 0 mm 2 mps 648 mmHg 73%
    04:00 +14°C° 0 mm 2 mps 648 mmHg 74%
    05:00 +17°C° 0 mm 2 mps 648 mmHg 68%
    06:00 +19°C° 0 mm 3 mps 649 mmHg 63%
    07:00 +21°C° 0 mm 3 mps 649 mmHg 57%
    08:00 +22°C° 0 mm 4 mps 650 mmHg 55%
    09:00 +23°C° 0 mm 5 mps 650 mmHg 53%
    10:00 +23°C° 0 mm 6 mps 650 mmHg 51%
    11:00 +23°C° 0 mm 6 mps 650 mmHg 49%
    12:00 +24°C° 0 mm 6 mps 649 mmHg 47%
    13:00 +24°C° 0 mm 6 mps 649 mmHg 45%
    14:00 +23°C° 0 mm 6 mps 649 mmHg 45%
    15:00 +23°C° 0 mm 6 mps 649 mmHg 44%
    16:00 +22°C° 0 mm 7 mps 649 mmHg 43%
    17:00 +20°C° 0 mm 6 mps 648 mmHg 50%
    18:00 +17°C° 0 mm 5 mps 648 mmHg 57%
    19:00 +15°C° 0 mm 5 mps 648 mmHg 64%
    20:00 +14°C° 0 mm 5 mps 648 mmHg 69%
    21:00 +13°C° 0 mm 4 mps 648 mmHg 74%
    22:00 +11°C° 0 mm 4 mps 648 mmHg 79%
    23:00 +11°C° 0 mm 4 mps 648 mmHg 82%

    3 July, Monday

    Time Temperature Precipitation Wind Pressure Humidity
    00:00 +11°C° 0 mm 4 mps 647 mmHg 85%
    01:00 +10°C° 0 mm 3 mps 647 mmHg 87%
    02:00 +10°C° 0 mm 3 mps 647 mmHg 87%
    03:00 +10°C° 0 mm 3 mps 647 mmHg 87%
    04:00 +10°C° 0 mm 3 mps 647 mmHg 87%
    05:00 +12°C° 0 mm 3 mps 648 mmHg 77%
    06:00 +14°C° 0 mm 3 mps 648 mmHg 67%
    07:00 +17°C° 0 mm 2 mps 649 mmHg 58%
    08:00 +18°C° 0 mm 3 mps 649 mmHg 51%
    09:00 +20°C° 0 mm 4 mps 650 mmHg 44%
    10:00 +22°C° 0 mm 4 mps 650 mmHg 37%
    11:00 +22°C° 0 mm 5 mps 650 mmHg 35%
    12:00 +23°C° 0 mm 6 mps 650 mmHg 34%
    13:00 +23°C° 0 mm 6 mps 650 mmHg 32%
    14:00 +23°C° 0 mm 6 mps 650 mmHg 34%
    15:00 +22°C° 0 mm 6 mps 650 mmHg 35%
    16:00 +22°C° 0 mm 6 mps 650 mmHg 37%
    17:00 +20°C° 0 mm 6 mps 650 mmHg 44%
    18:00 +17°C° 0 mm 5 mps 650 mmHg 52%
    19:00 +15°C° 0 mm 4 mps 649 mmHg 59%
    20:00 +14°C° 0 mm 4 mps 649 mmHg 62%
    21:00 +13°C° 0 mm 4 mps 650 mmHg 64%
    22:00 +11°C° 0 mm 3 mps 650 mmHg 67%
    23:00 +11°C° 0 mm 3 mps 650 mmHg 68%
    Show more